[[{"header":{"parameterUnit":"m.s-1","parameterCategory":1,"la1":30.2991,"la2":30.254,"lo1":-89.0895,"lo2":-89.0444,"dy":0.0017,"dx":0.0017,"nx":28,"ny":28,"refTime":"2025-04-04T03:00:00:Z","depth":0,"parameterNumber":2,"parameterNumberName":"U-component_of_WINDS"},"data":[0,0,0,0,0,0,0,0,0,0,0,0,0,0,0,0,0,0,0,0,0,0,0,0,0,0,0,0,0,0,0,0,0,0,0,0,0,0,0,0,0,0,0,0,0,0,0,0,0,0,0,0,0,0,0,0,0,0,-4.1551,-4.1553,0,-4.1697,-4.1698,-4.17,-4.173,-4.1729,-4.1727,-4.1726,-4.1875,-4.188,-4.1885,0,0,0,0,0,0,0,0,0,0,0,0,0,-4.1298,-4.1303,-4.1551,-4.1553,-4.1555,-4.1696,-4.1698,-4.17,-4.173,-4.1728,-4.1727,-4.1726,-4.1873,-4.1879,-4.1885,0,0,0,0,0,0,0,0,0,0,0,0,0,-4.1422,-4.1304,-4.1551,-4.1586,-4.1591,-4.1696,-4.1699,-4.1701,-4.173,-4.1728,-4.1727,-4.1725,-4.1872,-4.1879,-4.1886,-4.1966,0,0,-4.1909,-4.1912,0,0,0,0,0,0,0,0,-4.1415,-4.1432,-4.1579,-4.1584,-4.1589,-4.1693,-4.1664,-4.179,-4.1731,-4.1677,-4.1726,-4.1724,-4.1816,-4.1828,-4.1859,-4.1973,-4.1979,-4.191,-4.1914,-4.1918,-4.192,0,0,0,0,0,0,0,-4.1407,-4.1426,-4.1609,-4.1581,-4.1588,-4.1595,-4.1611,-4.1688,-4.1754,-4.1682,-4.1684,-4.1701,-4.1818,-4.1852,-4.1863,-4.1981,-4.191,-4.1916,-4.1921,-4.1924,-4.2169,-4.2171,0,0,0,0,0,0,-4.1392,-4.1418,-4.1604,-4.1613,-4.1497,-4.1601,-4.1619,-4.1662,-4.1753,-4.1766,-4.1702,-4.1702,-4.184,-4.1854,-4.1868,-4.1967,-4.1917,-4.1925,-4.1929,-4.2167,-4.2169,-4.2171,0,0,0,0,0,0,-4.1386,-4.1408,-4.1598,-4.1516,-4.1541,-4.1607,-4.1655,-4.1665,-4.1699,-4.1769,-4.1781,-4.1724,-4.1839,-4.1857,-4.1941,-4.1972,-4.1928,-4.1935,-4.2164,-4.2167,-4.217,-4.2165,0,0,0,0,0,0,-4.1379,-4.1406,-4.1437,-4.1517,-4.1545,-4.1669,-4.1657,-4.1669,-4.1711,-4.1712,-4.1793,-4.1804,-4.1839,-4.193,-4.1949,-4.1982,-4.1941,-4.2162,-4.2166,-4.2169,-4.2163,-4.2168,-4.2172,0,0,0,0,0,-4.137,-4.1429,-4.1438,-4.146,-4.1585,-4.167,-4.1687,-4.1726,-4.1714,-4.1745,-4.1791,-4.1802,-4.1967,-4.1938,-4.196,-4.1996,-4.216,-4.2165,-4.2169,-4.2161,-4.2167,-4.2172,0,0,0,0,0,0,-4.135,-4.144,-4.1451,-4.1538,-4.1597,-4.1675,-4.1716,-4.1731,-4.1793,-4.1791,-4.1837,-4.1855,-4.1936,-4.1975,-4.1942,-4.2078,-4.2063,-4.2072,-4.2049,-4.2056,-4.206,-4.2048,-4.1947,0,0,0,0,0,-4.1356,-4.1418,-4.1494,-4.1563,-4.1592,-4.1649,-4.1688,-4.1713,-4.1775,-4.18,-4.1851,-4.1911,-4.1977,-4.2019,-4.2083,-4.217,-4.2187,-4.2205,-4.221,-4.2213,-4.222,-4.2268,-4.2277,-4.2186,-4.2186,-4.2186,0,0,-4.1369,-4.1426,-4.1462,-4.1561,-4.1609,-4.1672,-4.167,-4.1736,-4.1783,-4.181,-4.1892,-4.1932,-4.2002,-4.2088,-4.2129,-4.2123,-4.2249,-4.2219,-4.2221,-4.2226,-4.2274,-4.2282,-4.229,-4.2189,-4.2189,-4.2188,0,0,-4.1424,-4.1474,-4.1537,-4.1586,-4.1659,-4.1697,-4.1712,-4.1789,-4.1817,-4.19,-4.1922,-4.1979,-4.2091,-4.214,-4.2179,-4.2255,-4.2267,-4.2274,-4.2297,-4.2344,-4.2351,-4.2358,-4.2384,-4.2393,-4.2281,-4.2281,-4.2281,0,-4.143,-4.1526,-4.1567,-4.1634,-4.1676,-4.1704,-4.1769,-4.1814,-4.1904,-4.1933,-4.1926,-4.2067,-4.2116,-4.2214,-4.2232,-4.2264,-4.2283,-4.2264,-4.2347,-4.2354,-4.236,-4.2386,-4.2396,-4.2282,-4.2282,-4.2281,-4.2281,0,-4.1529,-4.1596,-4.1638,-4.1725,-4.1773,-4.1838,-4.189,-4.1933,-4.1955,-4.1994,-4.2079,-4.2139,-4.2216,-4.2242,-4.2263,-4.2343,-4.2337,-4.2338,-4.2323,-4.2369,-4.2393,-4.2403,-4.2282,-4.2282,-4.2282,-4.2282,0,0,-4.1574,-4.1684,-4.1699,-4.1739,-4.1822,-4.1874,-4.1941,-4.2017,-4.2053,-4.2115,-4.2172,-4.2267,-4.2268,-4.2313,-4.2341,-4.2383,-4.2438,-4.2379,-4.2381,-4.2386,-4.2528,-4.2525,-4.2536,-4.2447,-4.2449,-4.2451,-4.2522,0,-4.1638,-4.1757,-4.1797,-4.1896,-4.1958,-4.1987,-4.2045,-4.2102,-4.2141,-4.2199,-4.2242,-4.2308,-4.2306,-4.2333,-4.2376,-4.2422,-4.2466,-4.2418,-4.25,-4.2502,-4.2479,-4.2549,-4.2546,-4.261,-4.2532,-4.2534,-4.2535,0,-4.1728,-4.1791,-4.1896,-4.1973,-4.2,-4.2051,-4.2124,-4.218,-4.2246,-4.2271,-4.2322,-4.2347,-4.2418,-4.2401,-4.25,-4.2465,-4.2502,-4.253,-4.2534,-4.2541,-4.252,-4.2557,-4.2632,-4.264,-4.255,-4.2549,-4.2548,0,-4.1748,-4.186,-4.1937,-4.1971,-4.2062,-4.2098,-4.2137,-4.2202,-4.2245,-4.231,-4.2338,-4.2409,-4.2448,-4.2503,-4.2547,-4.253,-4.2641,-4.2628,-4.2664,-4.2662,-4.2684,-4.2681,-4.2763,-4.271,-4.271,-4.271,-4.271,0,-4.1814,-4.1877,-4.1948,-4.1995,-4.2066,-4.2113,-4.2182,-4.2224,-4.2282,-4.2338,-4.2368,-4.242,-4.2476,-4.2535,-4.257,-4.2646,-4.2664,-4.2686,-4.2694,-4.2682,-4.2679,-4.2705,-4.2701,-4.2713,-4.2712,-4.2711,-4.2711,0,-4.1847,-4.1898,-4.1984,-4.2064,-4.2085,-4.2134,-4.2203,-4.225,-4.2291,-4.2362,-4.2381,-4.2444,-4.2516,-4.2566,-4.2658,-4.2682,-4.2763,-4.2772,-4.274,-4.2744,-4.2777,-4.2772,-4.2877,-4.2893,-4.283,-4.2831,-4.2831,0,-4.1885,-4.1934,-4.202,-4.206,-4.2099,-4.2163,-4.2208,-4.2256,-4.2301,-4.2381,-4.2419,-4.2492,-4.2554,-4.2667,-4.2721,-4.2792,-4.2802,-4.2834,-4.2812,-4.2799,-4.2801,-4.2796,-4.2801,-4.2836,-4.2836,-4.2837,-4.2837,0,-4.1947,-4.1969,-4.2032,-4.2104,-4.2156,-4.2214,-4.2274,-4.2305,-4.2363,-4.2413,-4.2486,-4.2534,-4.2628,-4.2701,-4.2778,-4.2819,-4.2838,-4.2844,-4.2856,-4.2843,-4.2822,-4.2833,-4.2747,-4.2841,-4.284,-4.284,-4.284,-4.284,-4.1983,-4.2028,-4.2095,-4.2164,-4.2214,-4.2268,-4.2317,-4.2364,-4.2426,-4.2506,-4.2532,-4.2608,-4.2675,-4.2779,-4.2822,-4.2882,-4.288,-4.2897,-4.2902,-4.2905,-4.2904,-4.2814,-4.2897,-4.2897,-4.2897,-4.2897,-4.2897,0,-4.2045,-4.209,-4.2153,-4.2235,-4.2289,-4.2303,-4.237,-4.2414,-4.2481,-4.2541,-4.2601,-4.2686,-4.2758,-4.2818,-4.2892,-4.2929,-4.2939,-4.2947,-4.2943,-4.2952,-4.2902,-4.2884,-4.2937,-4.2937,-4.2937,-4.2937,-4.2937,-4.2937,-4.2083,-4.216,-4.219,-4.2292,-4.2337,-4.2412,-4.2449,-4.25,-4.2548,-4.2641,-4.2701,-4.274,-4.2801,-4.288,-4.2946,-4.2962,-4.2987,-4.2992,-4.3009,-4.2961,-4.2956,-4.2951,-4.2934,-4.2997,-4.2997,-4.3055,-4.3055,-4.3056]},{"header":{"parameterUnit":"m.s-1","parameterCategory":1,"la1":30.2991,"la2":30.254,"lo1":-89.0895,"lo2":-89.0444,"dy":0.0017,"dx":0.0017,"nx":28,"ny":28,"refTime":"2025-04-04T03:00:00:Z","depth":0,"parameterNumber":3,"parameterNumberName":"V-component_of_WINDS"},"data":[0,0,0,0,0,0,0,0,0,0,0,0,0,0,0,0,0,0,0,0,0,0,0,0,0,0,0,0,0,0,0,0,0,0,0,0,0,0,0,0,0,0,0,0,0,0,0,0,0,0,0,0,0,0,0,0,0,0,3.9166,3.9168,0,3.9283,3.9284,3.9285,3.9318,3.9318,3.9317,3.9316,3.9435,3.9439,3.9442,0,0,0,0,0,0,0,0,0,0,0,0,0,3.8975,3.8978,3.9166,3.9168,3.9169,3.9282,3.9284,3.9286,3.9318,3.9318,3.9317,3.9316,3.9434,3.9438,3.9443,0,0,0,0,0,0,0,0,0,0,0,0,0,3.9071,3.8979,3.9166,3.9199,3.9203,3.9282,3.9284,3.9286,3.9319,3.9318,3.9317,3.9316,3.9432,3.9438,3.9443,3.9497,0,0,3.9461,3.9463,0,0,0,0,0,0,0,0,3.9065,3.9078,3.9193,3.9197,3.9202,3.9285,3.926,3.9357,3.9319,3.9275,3.9316,3.9315,3.9386,3.9395,3.9419,3.9503,3.9508,3.9461,3.9464,3.9467,3.9468,0,0,0,0,0,0,0,3.9059,3.9073,3.9212,3.9195,3.92,3.9209,3.9222,3.9278,3.9334,3.9279,3.9281,3.9295,3.9388,3.9414,3.9422,3.951,3.9461,3.9466,3.9469,3.9472,3.9647,3.9648,0,0,0,0,0,0,3.9046,3.9067,3.9209,3.9216,3.913,3.9213,3.9227,3.9259,3.9334,3.9344,3.9295,3.9296,3.9404,3.9416,3.9426,3.9497,3.9467,3.9472,3.9475,3.9645,3.9647,3.9648,0,0,0,0,0,0,3.9042,3.9058,3.9204,3.9142,3.9162,3.9217,3.9253,3.9262,3.9288,3.9346,3.9357,3.9311,3.9404,3.9419,3.948,3.9501,3.9475,3.948,3.9644,3.9646,3.9648,3.9636,0,0,0,0,0,0,3.9036,3.9057,3.9077,3.9143,3.9165,3.9255,3.9254,3.9265,3.9297,3.9299,3.9364,3.9374,3.9404,3.9472,3.9486,3.9509,3.9484,3.9642,3.9645,3.9647,3.9635,3.9638,3.964,0,0,0,0,0,3.9029,3.9069,3.9078,3.9095,3.9191,3.9256,3.9269,3.9304,3.9299,3.932,3.9359,3.9372,3.9496,3.9478,3.9494,3.9519,3.9641,3.9644,3.9647,3.9634,3.9637,3.964,0,0,0,0,0,0,3.9003,3.9078,3.9089,3.915,3.9197,3.9262,3.929,3.9305,3.9354,3.9354,3.9395,3.9409,3.9468,3.9499,3.9477,3.9576,3.9569,3.9575,3.9554,3.9557,3.956,3.9551,3.9489,0,0,0,0,0,3.9005,3.9051,3.9113,3.9162,3.9185,3.9233,3.9263,3.9286,3.9335,3.9355,3.9398,3.9446,3.9496,3.9528,3.9577,3.964,3.9656,3.9665,3.9667,3.9669,3.9674,3.9712,3.9718,3.9658,3.9658,3.9658,0,0,3.9008,3.9055,3.9081,3.9158,3.9196,3.9244,3.9249,3.9299,3.9335,3.9363,3.9424,3.9457,3.9514,3.9576,3.9606,3.9604,3.9694,3.9673,3.9673,3.9678,3.9716,3.9721,3.9726,3.966,3.9659,3.9659,0,0,3.9039,3.9078,3.9124,3.9163,3.9222,3.9255,3.9266,3.9329,3.9352,3.9415,3.9437,3.9481,3.9566,3.9606,3.9638,3.9687,3.9702,3.9702,3.9715,3.9751,3.9756,3.976,3.978,3.9787,3.9707,3.9707,3.9707,0,3.9036,3.9109,3.9145,3.9195,3.9229,3.9257,3.9305,3.9341,3.9413,3.9436,3.9433,3.9543,3.9582,3.9656,3.9669,3.9692,3.9708,3.9695,3.9752,3.9757,3.9762,3.9781,3.9788,3.9707,3.9707,3.9707,3.9707,0,3.9103,3.9154,3.9184,3.9254,3.9291,3.9339,3.9384,3.9418,3.9438,3.9471,3.9536,3.9585,3.9646,3.9665,3.9685,3.9743,3.974,3.9744,3.9738,3.9767,3.9786,3.9793,3.9706,3.9706,3.9706,3.9706,0,0,3.9121,3.9212,3.9223,3.9256,3.9324,3.9364,3.9415,3.9475,3.9504,3.9553,3.9598,3.9671,3.9676,3.9711,3.9736,3.9768,3.9807,3.9768,3.977,3.9776,3.9877,3.9875,3.9883,3.9817,3.9818,3.982,3.9873,0,3.9162,3.9253,3.9289,3.9364,3.9412,3.944,3.9485,3.9532,3.9565,3.9611,3.9647,3.9699,3.97,3.9723,3.9755,3.9795,3.9828,3.9792,3.986,3.9862,3.9847,3.9892,3.989,3.9938,3.988,3.9882,3.9883,0,3.9222,3.9273,3.9353,3.9418,3.944,3.9479,3.9539,3.9582,3.9637,3.9659,3.97,3.9724,3.9779,3.9769,3.9847,3.9821,3.9852,3.9876,3.9878,3.9887,3.9875,3.9904,3.9954,3.9962,3.9894,3.9893,3.9893,0,3.923,3.9318,3.9378,3.9406,3.9482,3.951,3.9543,3.9597,3.9632,3.9684,3.9708,3.9765,3.9797,3.9842,3.9881,3.987,3.9956,3.9949,3.9977,3.9977,3.9995,3.9994,4.0052,4.0012,4.0011,4.0011,4.0011,0,3.9273,3.9321,3.9383,3.942,3.9476,3.9517,3.9571,3.9606,3.9655,3.97,3.9727,3.9769,3.9817,3.9866,3.9897,3.9958,3.9972,3.9992,4.0,3.9991,3.9988,4.0012,4.001,4.0013,4.0013,4.0013,4.0012,0,3.9291,3.9334,3.9402,3.9469,3.9488,3.9526,3.9585,3.9622,3.9657,3.9714,3.973,3.9785,3.9844,3.9887,3.9962,3.9983,4.005,4.0057,4.0031,4.0036,4.0063,4.0061,4.014,4.0153,4.0102,4.0102,4.0102,0,3.9316,3.9354,3.9427,3.946,3.9493,3.9545,3.9581,3.9624,3.9661,3.9728,3.9758,3.9819,3.987,3.9963,4.001,4.0069,4.0079,4.0103,4.0088,4.0078,4.0082,4.008,4.0085,4.0105,4.0105,4.0105,4.0106,0,3.9358,3.9378,3.9429,3.949,3.9533,3.9581,3.9631,3.9656,3.9707,3.9748,3.9809,3.9849,3.9927,3.9988,4.0052,4.0087,4.0106,4.011,4.012,4.0112,4.0097,4.0108,4.0039,4.0108,4.0108,4.0108,4.0108,4.0108,3.9382,3.9419,3.9476,3.9533,3.9575,3.9621,3.9661,3.9702,3.9753,3.9821,3.9843,3.9907,3.9963,4.0051,4.0087,4.0139,4.0138,4.0152,4.0156,4.0159,4.016,4.0087,4.015,4.015,4.015,4.015,4.015,0,3.9427,3.9466,3.9518,3.9588,3.9633,3.9647,3.9703,3.974,3.9796,3.9847,3.9898,3.997,4.003,4.0082,4.0144,4.0176,4.0186,4.0191,4.019,4.0198,4.0156,4.0142,4.0182,4.0182,4.0182,4.0182,4.0182,4.0182,3.9456,3.9519,3.9547,3.9632,3.967,3.9734,3.9765,3.9808,3.985,3.9929,3.9979,4.0013,4.0065,4.0132,4.0189,4.0203,4.0225,4.0229,4.0245,4.0204,4.0201,4.0197,4.0184,4.0233,4.0233,4.0283,4.0284,4.0284]}]]